Station PTIM4 - 9099004 - Point Iroquois, MI Image indicating link to RSS feed of recent meteorological observations for station PTIM4


Conditions at PTIM4 as of
(4:48 pm EDT)
2048 GMT on 04/16/2024:
     

Click on the graph icon in the table below to see a time series plot of the last five days of that observation.

5-day plot - Wind Direction Wind Direction (WDIR): N ( 350 deg true )
5-day plot - Wind Speed Wind Speed (WSPD): 8.0 kts
5-day plot - Wind Gust Wind Gust (GST): 11.1 kts
5-day plot - Atmospheric Pressure Atmospheric Pressure (PRES):30.11 in
5-day plot - Air Temperature Air Temperature (ATMP): 43.3 °F
5-day plot - Dew Point Dew Point (DEWP): 28.4 °F
5-day plot - Wind Chill Wind Chill (CHILL): 38.1 °F
5-day plot - Wind Speed at 10 Meters Wind Speed at 10 meters (WSPD10M): 7.8 kts
5-day plot - Wind Speed at 20 Meters Wind Speed at 20 meters (WSPD20M): 9.7 kts
5-day plot -  Wind Speed, Wind Gust and Atmospheric Pressure Combined plot of Wind Speed, Gust, and Air Pressure
NOS Water Level Observation Network Water Level
Previous observations
TIME
(EDT)
5-day plot - Wind Direction
WDIR
 
5-day plot - Wind Speed
WSPD
kts
5-day plot - Wind Gust
GST
kts
5-day plot - Wave Height
WVHT
ft
5-day plot - Dominant Wave Period
DPD
sec
5-day plot - Average Wave Period
APD
sec
5-day plot - Mean Wave Direction
MWD
 
5-day plot - Atmospheric Pressure
PRES
in
5-day plot - Pressure Tendency
PTDY
in
5-day plot - Air Temperature
ATMP
°F
5-day plot - Water Temperature
WTMP
°F
5-day plot - Dew Point
DEWP
°F
5-day plot - Salinity
SAL
psu
5-day plot - Visibility
VIS
nmi
5-day plot - Tide (above MLLW)
TIDE
ft
2024-04-16 04:42 pm N 9.9 12.0----30.11- 43.0- 27.7---
2024-04-16 04:36 pm N 9.9 12.0----30.12- 45.0- 25.0---
2024-04-16 04:30 pm N 7.0 8.0----30.13- 44.4- 26.8---
2024-04-16 04:24 pm N 7.0 8.9----30.14- 44.6- 26.6---
2024-04-16 04:18 pm N 7.0 8.0----30.14- 45.0- 25.7---
2024-04-16 04:12 pm N 6.0 8.0----30.15- 44.2- 27.3---
2024-04-16 04:06 pmNNW 6.0 8.0----30.16- 43.3- 28.4---
2024-04-16 04:00 pm N 6.0 7.0----30.15-0.06 43.3- 28.4---
2024-04-16 03:54 pmNNW 6.0 7.0----30.16- 43.5- 29.1---
2024-04-16 03:48 pmNNW 7.0 8.9----30.16- 43.7- 27.7---
2024-04-16 03:42 pm N 6.0 8.0----30.16- 43.5- 28.4---
2024-04-16 03:36 pmNNW 6.0 8.0----30.17- 43.9- 27.1---
2024-04-16 03:30 pmNNW 7.0 8.0----30.17- 43.7- 27.9---
2024-04-16 03:24 pm N 7.0 8.0----30.16- 43.3- 28.9---
2024-04-16 03:18 pm N 8.0 8.9----30.16- 43.2- 28.9---
2024-04-16 03:12 pmNNW 6.0 8.0----30.17- 43.0- 30.2---
2024-04-16 03:06 pmNNW 7.0 8.9----30.17- 42.8- 29.5---
2024-04-16 03:00 pm N 7.0 7.0----30.17-0.06 43.0- 29.3---
2024-04-16 02:54 pmNNW 6.0 7.0----30.18- 43.7- 29.1---
2024-04-16 02:48 pmNNW 5.1 8.0----30.18- 43.5- 30.4---
2024-04-16 02:42 pm N 7.0 8.9----30.18- 43.3- 30.9---
2024-04-16 02:36 pmNNW 2.9 5.1----30.18- 44.1- 31.6---
2024-04-16 02:30 pmWNW 1.9 5.1----30.18- 44.4- 30.4---
2024-04-16 02:24 pm NW 2.9 5.1----30.18- 44.1- 29.5---
2024-04-16 02:18 pmNNW 2.9 7.0----30.18- 43.3- 30.2---
2024-04-16 02:12 pmWSW 1.9 4.1----30.18- 43.7- 31.1---
2024-04-16 02:06 pm NW 2.9 5.1----30.19- 42.3- 33.4---
2024-04-16 02:00 pmNNW 4.1 5.1----30.18-0.04 41.9- 33.3---
2024-04-16 01:54 pm N 4.1 6.0----30.19- 41.7- 32.5---
2024-04-16 01:48 pmNNW 4.1 6.0----30.19- 41.7- 32.2---
2024-04-16 01:42 pmNNW 5.1 6.0----30.19- 41.5- 32.0---
2024-04-16 01:36 pmNNW 4.1 6.0----30.20- 41.2- 33.6---
2024-04-16 01:30 pm N 6.0 7.0----30.20- 40.3- 34.0---
2024-04-16 01:24 pm N 7.0 7.0----30.20- 40.5- 33.1---
2024-04-16 01:18 pm N 6.0 7.0----30.21- 40.6- 33.1---
2024-04-16 01:12 pm N 5.1 7.0----30.21- 40.5- 33.6---
2024-04-16 01:06 pm N 5.1 6.0----30.21- 40.5- 33.8---
2024-04-16 01:00 pm N 5.1 6.0----30.21-0.02 40.6- 34.0---
2024-04-16 12:54 pmNNW 2.9 4.1----30.22- 40.8- 34.3---
2024-04-16 12:48 pmNNW 2.9 4.1----30.22- 41.0- 34.2---
2024-04-16 12:42 pm N 4.1 6.0----30.22- 40.8- 33.4---
2024-04-16 12:36 pm N 4.1 6.0----30.22- 40.5- 33.8---
2024-04-16 12:30 pm N 5.1 6.0----30.22- 39.9- 34.2---
2024-04-16 12:24 pm N 5.1 6.0----30.22- 40.1- 33.4---
2024-04-16 12:18 pm N 4.1 5.1----30.23- 41.2- 32.2---
2024-04-16 12:12 pm N 2.9 4.1----30.23- 41.5- 30.7---
2024-04-16 12:06 pm N 2.9 5.1----30.24- 41.4- 30.6---
2024-04-16 12:00 pm N 2.9 4.1----30.24+0.02 40.6- 31.6---
2024-04-16 11:54 am N 1.9 5.1----30.24- 41.0- 32.9---
2024-04-16 11:48 am N 4.1 5.1----30.23- 39.2- 33.8---
2024-04-16 11:42 am N 4.1 5.1----30.24- 39.4- 33.6---
2024-04-16 11:36 am N 4.1 5.1----30.24- 39.4- 34.0---
2024-04-16 11:30 am N 4.1 5.1----30.23- 38.7- 34.7---
2024-04-16 11:24 am N 2.9 6.0----30.24- 39.2- 34.0---
2024-04-16 11:18 amENE 2.9 4.1----30.23- 42.1- 30.4---
2024-04-16 11:12 amENE 2.9 2.9----30.23- 42.6- 29.7---
2024-04-16 11:06 am E 2.9 5.1----30.23- 45.0- 28.8---
2024-04-16 11:00 am E 2.9 4.1----30.23+0.03 43.5- 29.7---
2024-04-16 10:54 am E 2.9 4.1----30.22- 43.0- 31.1---
2024-04-16 10:48 am E 1.9 2.9----30.22- 40.6- 32.5---
2024-04-16 10:42 am NE 1.9 1.9----30.22- 38.3- 34.9---
2024-04-16 10:36 am- 0.0 1.9----30.22- 37.9- 34.9---
2024-04-16 10:30 am N 1.9 1.9----30.22- 37.0- 35.2---
2024-04-16 10:24 am NW 1.0 1.9----30.22- 37.4- 35.1---
2024-04-16 10:18 amNNW 1.9 2.9----30.22- 37.0- 35.4---
2024-04-16 10:12 am NW 1.9 2.9----30.22- 37.0- 35.1---
2024-04-16 10:06 am NW 1.9 2.9----30.23- 37.2- 35.2---
2024-04-16 10:00 amWNW 1.9 2.9----30.23+0.05 37.2- 35.2---
2024-04-16 09:54 am NW 2.9 4.1----30.22- 37.0- 35.1---
2024-04-16 09:48 amWNW 2.9 4.1----30.23- 37.6- 35.4---
2024-04-16 09:42 am W 4.1 4.1----30.23- 37.9- 35.4---
2024-04-16 09:36 am W 2.9 4.1----30.23- 37.4- 35.2---
2024-04-16 09:30 amWNW 2.9 4.1----30.23- 37.6- 35.4---
2024-04-16 09:24 am W 2.9 4.1----30.23- 38.3- 35.8---
2024-04-16 09:18 am W 4.1 4.1----30.23- 38.1- 35.6---
2024-04-16 09:12 am W 2.9 4.1----30.23- 38.1- 35.8---
2024-04-16 09:06 am W 2.9 5.1----30.22- 37.8- 35.4---
2024-04-16 09:00 am W 2.9 4.1----30.22+0.05 37.6- 35.1---
2024-04-16 08:54 am W 2.9 4.1----30.22- 37.6- 35.2---
2024-04-16 08:48 am W 4.1 5.1----30.22- 37.0- 34.9---
2024-04-16 08:42 am W 2.9 4.1----30.21- 36.7- 34.7---
2024-04-16 08:36 am W 2.9 4.1----30.21- 36.5- 34.5---
2024-04-16 08:30 am W 1.9 2.9----30.20- 36.7- 35.1---
2024-04-16 08:24 amWNW 2.9 2.9----30.19- 36.5- 34.5---
2024-04-16 08:18 amWNW 1.9 2.9----30.20- 37.0- 34.9---
2024-04-16 08:12 amWNW 2.9 4.1----30.20- 37.2- 35.1---
2024-04-16 08:06 amWNW 1.9 4.1----30.20- 37.2- 35.1---
2024-04-16 08:00 am W 1.9 2.9----30.20+0.04 37.0- 34.7---
2024-04-16 07:54 amWNW 1.9 4.1----30.19- 37.2- 34.9---
2024-04-16 07:48 am NW 4.1 5.1----30.19- 37.4- 34.9---
2024-04-16 07:42 amWNW 2.9 6.0----30.19- 37.6- 35.1---
2024-04-16 07:36 amWNW 4.1 5.1----30.19- 37.0- 34.9---
2024-04-16 07:30 am W 2.9 5.1----30.19- 36.7- 34.7---
2024-04-16 07:24 am W 2.9 5.1----30.19- 35.8- 34.3---
2024-04-16 07:18 am W 2.9 4.1----30.18- 35.8- 34.3---
2024-04-16 07:12 am W 2.9 4.1----30.18- 36.3- 34.9---
2024-04-16 07:06 amWNW 4.1 5.1----30.18- 36.3- 35.1---
2024-04-16 07:00 amWNW 4.1 5.1----30.18+0.04 36.1- 35.1---
2024-04-16 06:54 amWNW 5.1 5.1----30.18- 36.5- 35.4---
2024-04-16 06:48 amWNW 5.1 5.1----30.18- 36.5- 35.4---
2024-04-16 06:42 amWNW 5.1 5.1----30.17- 36.5- 35.2---
2024-04-16 06:36 amWNW 5.1 5.1----30.17- 36.7- 35.8---
2024-04-16 06:30 amWNW 5.1 5.1----30.17- 36.5- 35.6---
2024-04-16 06:24 am NW 4.1 5.1----30.17- 36.7- 35.8---
2024-04-16 06:18 amWNW 4.1 5.1----30.17- 37.0- 35.1---
2024-04-16 06:12 amWNW 4.1 5.1----30.17- 37.4- 35.1---
2024-04-16 06:06 am W 2.9 5.1----30.17- 36.5- 34.7---
2024-04-16 06:00 am W 2.9 5.1----30.17+0.04 36.5- 34.5---
2024-04-16 05:54 am W 2.9 5.1----30.17- 36.7- 34.7---
2024-04-16 05:48 am W 4.1 6.0----30.16- 36.9- 34.7---
2024-04-16 05:42 am W 4.1 5.1----30.16- 36.9- 34.7---
2024-04-16 05:36 am W 2.9 4.1----30.16- 37.0- 34.9---
2024-04-16 05:30 am W 2.9 5.1----30.16- 36.7- 34.7---
2024-04-16 05:24 am W 2.9 5.1----30.16- 36.1- 34.3---
2024-04-16 05:18 am W 4.1 6.0----30.16- 36.0- 34.3---
2024-04-16 05:12 am W 4.1 5.1----30.16- 36.0- 34.3---
2024-04-16 05:06 am W 4.1 5.1----30.16- 36.7- 34.5---
2024-04-16 05:00 am W 4.1 5.1----30.16+0.04 37.2- 34.5---
2024-04-16 04:54 am W 4.1 5.1----30.15- 37.0- 34.5---
2024-04-16 04:48 am W 4.1 5.1----30.15- 36.9- 34.5---
2024-04-16 04:42 am W 2.9 5.1----30.15- 36.9- 34.5---
2024-04-16 04:36 am W 2.9 5.1----30.15- 36.7- 34.2---
2024-04-16 04:30 am W 2.9 4.1----30.14- 36.7- 34.2---
2024-04-16 04:24 am W 1.9 2.9----30.15- 35.8- 34.2---
2024-04-16 04:18 am W 1.9 2.9----30.15- 35.8- 33.6---
2024-04-16 04:12 am W 1.0 1.9----30.14- 36.3- 34.2---
2024-04-16 04:06 am W 1.9 2.9----30.14- 36.3- 34.0---
2024-04-16 04:00 am W 1.0 2.9----30.14+0.04 36.9- 33.6---
2024-04-16 03:54 amWSW 1.9 2.9----30.14- 37.2- 34.0---
2024-04-16 03:48 amWSW 1.9 2.9----30.14- 37.4- 34.3---
2024-04-16 03:42 amWSW 1.9 2.9----30.13- 37.4- 34.5---
2024-04-16 03:36 amWSW 2.9 2.9----30.13- 37.4- 34.5---
2024-04-16 03:30 amWSW 1.9 4.1----30.13- 37.6- 34.9---
2024-04-16 03:24 amWSW 2.9 4.1----30.13- 37.4- 34.7---
2024-04-16 03:18 am- 0.0 2.9----30.12- 37.6- 34.9---
2024-04-16 03:12 am W 2.9 5.1----30.13- 38.7- 35.8---
2024-04-16 03:06 am W 2.9 5.1----30.13- 38.5- 35.1---
2024-04-16 03:00 amWSW 1.9 7.0----30.13+0.04 38.7- 35.2---
2024-04-16 02:54 am W 4.1 9.9----30.12- 40.1- 34.7---
2024-04-16 02:48 am W 8.0 11.1----30.12- 39.4- 34.9---
2024-04-16 02:42 am W 6.0 9.9----30.12- 39.0- 34.3---
2024-04-16 02:36 amWSW 6.0 8.9----30.12- 38.8- 34.2---
2024-04-16 02:30 am W 5.1 8.9----30.12- 38.7- 34.9---
2024-04-16 02:24 am W 5.1 8.0----30.11- 38.8- 35.1---
2024-04-16 02:18 am W 5.1 8.9----30.12- 38.8- 35.2---
2024-04-16 02:12 am W 7.0 11.1----30.11- 39.0- 36.0---
2024-04-16 02:06 am W 8.0 9.9----30.11- 39.2- 35.8---
2024-04-16 02:00 am W 8.9 9.9----30.11+0.03 39.2- 35.6---
2024-04-16 01:54 am W 8.9 12.0----30.11- 39.2- 35.6---
2024-04-16 01:48 am W 8.9 13.0----30.11- 39.2- 35.4---
2024-04-16 01:42 am W 7.0 12.0----30.11- 39.0- 35.2---
2024-04-16 01:36 am W 9.9 13.0----30.11- 39.6- 35.8---
2024-04-16 01:30 am W 9.9 14.0----30.11- 39.4- 35.4---
2024-04-16 01:24 am W 8.0 12.0----30.11- 39.2- 35.4---
2024-04-16 01:18 am W 8.0 12.0----30.11- 39.2- 35.4---
2024-04-16 01:12 am W 8.9 12.0----30.10- 39.2- 35.1---
2024-04-16 01:06 am W 7.0 9.9----30.10- 39.0- 35.2---
2024-04-16 01:00 am W 7.0 9.9----30.10+0.02 39.0- 35.8---
2024-04-16 12:54 am W 6.0 9.9----30.09- 38.7- 35.8---
2024-04-16 12:48 am W 8.9 11.1----30.09- 38.8- 36.1---
2024-04-16 12:42 am W 8.0 9.9----30.09- 38.7- 36.5---
2024-04-16 12:36 am W 8.0 8.9----30.09- 38.7- 36.5---
2024-04-16 12:30 amWNW 7.0 8.0----30.09- 38.7- 36.1---
2024-04-16 12:24 amWNW 7.0 7.0----30.09- 38.7- 35.8---
2024-04-16 12:18 amWNW 7.0 8.9----30.09- 38.7- 35.8---
2024-04-16 12:12 amWNW 7.0 9.9----30.09- 38.7- 36.0---
2024-04-16 12:06 amWNW 7.0 8.9----30.09- 38.8- 36.0---
2024-04-16 12:00 amWNW 7.0 7.0----30.09+0.01 38.8- 36.1---
2024-04-15 11:54 pmWNW 6.0 8.0----30.09- 38.7- 36.0---
2024-04-15 11:48 pmWNW 8.0 8.9----30.09- 38.8- 35.6---
2024-04-15 11:42 pmWNW 6.0 8.0----30.09- 38.8- 35.4---
2024-04-15 11:36 pmWNW 7.0 8.0----30.09- 38.8- 35.8---
2024-04-15 11:30 pmWNW 7.0 8.0----30.09- 39.0- 35.4---
2024-04-15 11:24 pmWNW 6.0 8.0----30.09- 39.0- 35.4---
2024-04-15 11:18 pm W 7.0 8.0----30.09- 38.8- 36.0---
2024-04-15 11:12 pmWNW 7.0 8.0----30.09- 39.0- 35.8---
2024-04-15 11:06 pm NW 8.0 8.9----30.08- 39.2- 35.8---
2024-04-15 11:00 pm NW 8.0 9.9----30.08+0.02 39.2- 35.8---
2024-04-15 10:54 pm NW 8.9 12.0----30.08- 39.2- 35.8---
2024-04-15 10:48 pm NW 8.0 8.9----30.08- 38.7- 35.8---
2024-04-15 10:42 pm NW 8.0 12.0----30.08- 38.7- 35.2---
2024-04-15 10:36 pm NW 9.9 11.1----30.08- 39.7- 34.7---
2024-04-15 10:30 pm NW 7.0 8.0----30.08-------
2024-04-15 10:24 pmWNW 7.0 8.0----30.08-------
2024-04-15 10:18 pmWNW 8.0 8.9----30.08- 40.6- 35.2---
2024-04-15 10:12 pmWNW 8.0 8.9----30.08- 40.1- 35.6---
2024-04-15 10:06 pmWNW 5.1 7.0----30.08- 40.1- 36.3---
2024-04-15 10:00 pmWNW 6.0 8.0----30.08+0.03 40.1- 35.8---
2024-04-15 09:54 pm NW 7.0 7.0----30.08- 39.4- 35.6---
2024-04-15 09:48 pm NW 6.0 7.0----30.08- 39.2- 36.0---
2024-04-15 09:42 pmWNW 7.0 8.0----30.08- 39.7- 35.6---
2024-04-15 09:36 pmWNW 7.0 8.9----30.08- 39.9- 35.6---
2024-04-15 09:30 pmWNW 8.9 8.9----30.07- 39.9- 35.2---
2024-04-15 09:24 pmWNW 7.0 8.0----30.08- 40.5- 35.2---
2024-04-15 09:18 pmWNW 7.0 7.0----30.07- 39.7- 35.4---
2024-04-15 09:12 pm NW 6.0 7.0----30.07- 39.2- 35.6---
2024-04-15 09:06 pmNNW 4.1 5.1----30.08- 39.0- 35.8---
2024-04-15 09:00 pm N 2.9 2.9----30.08+0.05------
2024-04-15 08:54 pm- 0.0 1.0----30.08-------
2024-04-15 08:48 pm- 0.0 1.9----30.08- 38.3- 34.7---
2024-04-15 08:42 pm W 1.9 4.1----30.07- 39.4- 35.4---
2024-04-15 08:36 pm NW 4.1 6.0----30.07- 39.4- 35.2---
2024-04-15 08:30 pmWNW 6.0 8.9----30.06- 39.7- 35.1---
2024-04-15 08:24 pmWNW 4.1 5.1----30.06- 39.6- 35.6---
2024-04-15 08:18 pmWNW 5.1 6.0----30.06-------
2024-04-15 08:12 pmWNW 6.0 7.0----30.06-------
2024-04-15 08:06 pmWNW 5.1 6.0----30.06-------
2024-04-15 08:00 pmWNW 4.1 8.0----30.06+0.05 40.1- 35.2---
2024-04-15 07:54 pmWNW 4.1 8.0----30.06- 40.5- 35.2---
2024-04-15 07:48 pm NW 6.0 7.0----30.05- 39.7- 35.8---
2024-04-15 07:42 pm NW 7.0 8.0----30.05- 39.9- 35.2---
2024-04-15 07:36 pm NW 6.0 8.9----30.05- 40.3- 35.2---
2024-04-15 07:30 pm NW 6.0 8.0----30.05- 40.1- 35.1---
2024-04-15 07:24 pm NW 5.1 8.0----30.05- 40.3- 35.6---
2024-04-15 07:18 pm NW 8.0 8.9----30.05- 40.1- 35.2---
2024-04-15 07:12 pm NW 7.0 8.9----30.04- 40.3- 35.4---
2024-04-15 07:06 pmWNW 6.0 7.0----30.05- 40.3- 36.1---
2024-04-15 07:00 pmWNW 5.1 7.0----30.05+0.06 40.5- 36.5---
2024-04-15 06:54 pm NW 5.1 6.0----30.04- 40.3- 36.3---
2024-04-15 06:48 pm NW 5.1 6.0----30.05- 40.5- 36.5---
2024-04-15 06:42 pmWNW 5.1 6.0----30.04- 41.2- 36.7---
2024-04-15 06:36 pm W 6.0 7.0----30.04- 41.7- 36.7---
2024-04-15 06:30 pm W 6.0 8.0----30.03-------
2024-04-15 06:24 pmWNW 8.0 9.9----30.03-------
2024-04-15 06:18 pmWNW 8.9 12.0----30.03- 41.0- 36.7---
2024-04-15 06:12 pmWNW 11.1 13.0----30.03- 40.8- 36.1---
2024-04-15 06:06 pmWNW 12.0 14.0----30.03- 40.8- 36.1---
2024-04-15 06:00 pm NW 12.0 14.0----30.03+0.06 40.6- 35.8---
2024-04-15 05:54 pm NW 13.0 15.0----30.03- 40.8- 35.6---
2024-04-15 05:48 pm NW 13.0 15.9----30.02- 40.8- 35.8---
2024-04-15 05:42 pm NW 14.0 15.0----30.02- 40.8- 35.4---
2024-04-15 05:36 pm NW 14.0 15.0----30.02- 40.8- 35.6---
2024-04-15 05:30 pm NW 13.0 15.0----30.02- 41.0- 35.6---
2024-04-15 05:24 pm NW 15.0 17.1----30.01- 40.8- 35.4---
2024-04-15 05:18 pm NW 14.0 17.1------ 41.0- 35.8---
2024-04-15 05:12 pm NW 15.0 17.1------ 41.0- 35.8---
2024-04-15 05:06 pm NW 15.0 18.1------ 40.8- 35.8---
2024-04-15 05:00 pm NW 15.0 18.1----30.01+0.05 40.8- 35.8---
2024-04-15 04:54 pm NW 15.9 18.1----30.01- 41.2- 35.6---